SCP
0 0 0 0 0 0 0 0 0 0 0 0 0 0 0 0 0 0 0 0 0 0 0 0 0 0 0 0 0 0 0 0 0 0 0 0 0 0 0 0 0 0 0
0 0 0 0 0 0 0 0 0 0 0 0 0 0 0 0 0 0 0 0 0 0 0 0 0 0 0 0 0 0 0 0 0 0 0 0 0 0 0 0 0 0 0
0 0 0 0 0 0 0 0 0 0 0 0 0 0 0 0 0 0 0 0 0 0 0 0 0 0 0 0 0 0 0 0 0 0 0 0 0 0 0 0 0 0 0
0 0 0 0 0 0 0 0 0 0 0 0 0 0 0 0 0 0 0 0 0 0 0 0 0 0 0 0 0 0 0 0 0 0 0 0 0 0 0 0 0 0 0
0 0 0 0 0 0 0 0 0 0 0 0 0 0 0 0 0 0 0 0 0 0 0 0 0 0 0 0 0 0 0 0 0 0 0 0 0 0 0 0 0 0 0
0 0 0 0 0 0 0 0 0 1 1 1 1 0 0 0 0 0 0 0 0 0 0 0 0 0 0 0 0 0 0 0 0 0 0 0 0 0 0 0 0 0 0
0 0 0 0 0 0 0 0 1 1 1 1 1 1 0 0 0 0 0 0 0 0 0 0 0 0 0 0 0 0 0 0 0 0 0 0 0 0 0 0 0 0 0
0 0 0 0 0 0 0 0 1 1 1 1 1 1 0 0 0 0 0 0 0 0 0 0 0 0 0 0 0 0 0 0 0 0 0 0 0 0 0 0 0 0 0
0 0 0 0 0 0 0 0 1 1 1 1 1 1 0 0 0 0 0 0 0 0 0 0 0 0 0 0 0 0 0 0 0 0 0 0 0 0 0 0 0 0 0
0 0 0 1 0 0 0 0 1 1 1 1 1 0 0 0 0 0 0 0 0 0 0 0 0 0 0 0 0 0 0 0 0 0 0 0 0 0 0 0 0 0 0
0 0 0 1 1 1 1 1 1 1 1 1 0 0 0 0 0 0 0 0 0 0 0 0 0 0 0 0 0 0 0 0 0 0 0 0 0 0 0 0 0 0 0
0 0 0 1 1 1 1 1 1 1 1 1 1 1 1 1 1 1 0 0 0 0 0 0 0 0 0 0 0 0 0 0 0 0 0 0 0 0 0 0 0 0 0
0 0 1 1 1 1 1 1 1 1 1 1 1 1 1 1 1 1 1 1 0 0 0 0 0 0 0 0 0 0 0 0 0 0 0 0 0 0 0 0 0 0 0
0 0 1 1 1 1 1 1 1 1 1 1 1 1 1 1 1 1 1 1 1 1 0 0 0 0 0 0 0 0 0 0 0 0 0 0 0 0 0 1 0 0 0
0 0 1 1 1 1 1 1 1 1 1 1 1 1 1 1 1 1 1 1 1 1 1 0 0 0 0 0 0 0 0 0 0 0 0 0 0 0 0 0 0 0 0
0 1 1 1 1 1 1 1 1 1 1 1 1 1 1 1 1 1 1 1 1 1 1 0 0 0 0 0 0 0 0 0 0 0 0 0 0 0 0 0 0 0 0
1 1 1 1 1 1 1 1 1 1 1 1 1 1 1 1 1 1 1 1 1 1 1 0 0 0 0 0 0 0 0 0 0 0 0 0 0 0 0 0 0 0 0
1 1 1 1 1 1 1 1 1 1 1 1 1 1 1 1 1 1 1 1 1 1 1 1 0 0 0 0 0 0 0 0 0 0 0 0 0 0 0 0 0 0 0
1 1 1 1 1 1 1 1 1 1 1 1 1 1 1 1 1 1 1 1 1 1 1 1 0 0 0 0 0 0 0 0 0 0 0 0 0 0 0 0 0 0 0
1 1 1 1 1 1 1 1 1 1 1 1 1 1 1 1 1 1 1 1 1 1 1 1 0 0 0 0 0 0 0 0 0 0 0 0 0 0 0 0 0 0 0
1 1 1 1 2 1 1 1 1 1 1 1 1 1 1 1 1 1 1 1 1 1 1 1 0 0 0 0 0 0 0 0 0 0 0 0 0 0 0 0 0 0 0
1 1 2 2 2 2 2 2 2 1 1 1 1 1 1 1 1 1 1 1 1 1 1 0 0 0 0 0 0 0 0 0 0 0 0 0 0 0 0 0 0 0 0
1 1 2 2 2 2 2 2 2 1 1 1 1 1 1 1 1 1 1 1 1 1 1 0 0 0 0 0 0 0 0 0 0 0 0 0 0 0 0 0 0 0 0
1 2 2 2 2 2 2 2 1 1 1 1 1 1 1 1 1 1 1 1 1 0 0 0 0 0 0 0 0 0 0 0 0 0 0 0 0 0 0 0 0 0 0
2 2 2 2 2 2 1 1 1 1 1 1 1 1 1 1 1 1 1 0 0 0 0 0 0 0 0 0 0 0 0 0 0 0 0 0 0 0 0 0 0 0 0
2 2 2 2 2 1 1 1 1 1 1 1 1 1 1 1 1 1 0 0 0 0 0 0 0 0 0 0 0 0 0 0 0 0 0 0 0 0 0 0 0 0 0
Wind_Speed
10 10 10 9 9 8 8 8 7 7 5 4 4 3 3 2 2 1 1 1 1 1 2 2 1 2 1 1 1 1 1 1 1 2 1 2 3 2 2 3 2 3 4
11 11 10 10 10 10 9 9 8 8 7 4 3 2 2 2 1 1 1 2 2 2 2 2 2 2 1 2 2 2 2 1 0 2 2 1 2 2 2 2 3 2 3
12 12 11 11 11 10 10 9 8 8 7 6 5 3 3 3 3 2 2 1 2 3 3 2 2 2 3 1 2 2 2 2 1 1 2 2 0 1 2 2 1 1 1
12 12 12 12 11 11 10 10 9 8 8 7 6 6 4 3 2 2 1 1 2 3 2 3 3 3 2 1 3 1 2 2 2 1 1 2 2 2 1 2 2 1 1
12 12 12 12 11 11 10 9 9 9 9 8 7 7 5 3 2 2 2 2 2 2 2 2 2 2 2 2 2 1 2 2 2 2 1 2 2 3 3 1 1 1 1
12 11 11 11 10 10 10 9 10 10 9 9 8 8 6 5 4 3 2 3 2 2 2 3 3 3 2 2 2 2 2 2 2 2 2 2 2 2 2 2 2 1 0
11 11 11 11 11 11 11 10 11 10 10 10 9 8 7 6 6 5 3 3 3 2 2 2 2 2 2 2 3 3 3 2 2 2 2 2 3 2 2 2 2 2 1
10 10 11 11 11 12 12 11 11 10 10 10 9 8 7 6 4 4 4 3 3 2 1 2 2 2 3 3 3 3 3 2 2 3 3 3 3 2 2 2 3 3 2
9 9 10 10 10 11 12 11 11 10 10 9 8 7 7 6 4 3 4 3 2 2 1 2 2 2 2 2 3 2 3 2 3 3 3 3 2 2 2 2 2 3 3
8 8 8 9 9 9 10 10 10 10 9 9 8 7 7 6 5 4 3 3 2 2 2 2 2 2 2 2 2 2 1 1 2 2 2 2 2 2 2 2 2 2 3
6 7 7 8 8 9 10 10 10 9 9 8 8 7 6 6 5 4 4 3 3 2 2 1 1 1 2 1 2 2 1 1 1 1 1 2 2 2 1 1 1 1 1
6 6 7 7 7 8 8 9 9 9 9 8 8 7 6 6 5 5 4 3 3 3 2 2 2 2 1 1 2 2 2 1 1 1 1 2 1 1 2 1 1 0 0
5 6 6 7 7 7 7 8 8 9 8 9 8 7 7 6 5 4 4 4 3 3 2 2 2 2 1 1 1 1 2 2 1 1 1 1 1 1 1 1 1 0 1
5 6 6 6 6 6 7 7 7 8 8 8 8 7 6 6 5 5 4 4 3 3 2 2 2 1 1 1 1 1 1 1 1 1 1 1 1 1 1 1 0 1 1
5 5 5 6 6 7 7 6 7 7 7 7 7 7 6 6 5 5 4 4 3 3 2 2 1 1 1 1 1 1 1 1 1 0 0 1 3 6 4 3 2 1 0
5 5 5 6 6 7 7 7 6 7 7 7 7 7 6 6 6 6 5 4 4 3 3 2 1 1 2 5 5 3 0 0 0 0 0 2 3 4 4 4 5 4 2
5 5 5 5 5 6 6 7 7 7 7 7 6 7 7 7 6 6 5 5 5 4 3 3 3 3 4 5 4 3 1 0 1 1 1 1 3 1 2 3 3 3 2
5 5 5 5 5 6 6 6 7 7 7 7 6 6 6 7 6 6 5 5 4 4 3 3 3 3 5 5 3 3 0 2 2 2 2 2 2 3 3 1 2 3 3
4 4 4 5 6 6 7 7 7 7 7 7 6 6 6 6 6 6 6 5 5 4 4 4 4 5 5 6 4 3 2 3 3 3 4 4 4 6 4 1 2 2 3
4 4 4 5 6 6 7 7 7 7 7 6 6 6 6 5 5 5 6 5 5 5 4 5 4 5 5 5 5 4 1 3 3 4 5 8 7 6 6 2 2 2 3
5 5 5 5 6 6 7 7 6 6 6 6 6 6 6 5 5 5 5 5 5 5 5 6 5 5 5 6 6 6 2 2 3 3 3 5 7 6 5 4 3 3 2
5 5 6 6 5 6 6 6 6 5 5 6 6 6 6 5 5 5 5 5 6 6 5 5 5 5 5 5 5 6 5 4 3 3 4 6 5 5 5 4 4 3 2
5 5 6 6 5 5 5 6 6 6 6 6 6 6 6 5 5 6 6 5 5 4 4 4 4 4 4 5 6 5 6 5 4 5 8 6 3 3 5 5 3 2 2
5 5 6 6 5 4 4 5 6 6 6 6 6 6 6 6 5 4 4 4 3 4 3 4 4 4 4 3 3 4 4 5 4 5 6 5 4 3 4 3 2 3 4
4 5 5 5 5 5 5 5 5 6 7 7 6 6 6 6 6 5 5 3 4 3 2 3 3 3 4 4 4 2 2 2 3 2 2 2 3 3 3 3 4 3 3
5 5 6 5 5 4 5 5 5 5 6 6 6 5 5 6 6 7 7 12 9 10 9 7 5 6 7 7 6 6 6 4 1 0 3 3 3 3 3 3 3 3 3
Wind_Direction
189 186 190 192 187 187 190 195 199 189 196 200 205 200 199 213 211 201 148 244 280 279 275 308 298 283 302 308 298 299 247 251 287 274 249 208 200 193 202 212 212 195 200
194 194 195 196 195 193 196 197 200 196 199 196 211 222 229 223 222 251 196 260 267 267 257 283 289 288 286 268 280 279 292 284 245 291 281 227 172 176 162 174 191 199 197
199 196 199 201 200 198 199 201 202 199 202 199 204 203 203 222 209 217 223 253 263 263 290 294 291 291 275 272 279 262 259 279 266 257 284 289 262 129 136 138 141 159 231
204 201 199 201 203 202 197 198 197 200 200 202 211 214 224 232 236 237 210 248 260 270 272 279 283 286 290 288 265 252 267 261 270 227 251 291 315 280 196 180 146 160 216
205 203 201 199 202 200 194 192 192 197 200 206 210 219 230 230 227 226 208 245 242 252 264 266 273 276 280 292 296 297 280 270 270 270 240 228 234 249 255 252 238 204 216
200 200 198 195 196 195 195 190 189 196 199 204 209 215 223 232 241 242 242 238 232 234 248 263 271 271 280 279 269 272 260 274 287 285 271 259 255 248 249 253 257 258 288
193 192 192 191 193 194 195 192 190 194 197 201 208 210 215 223 229 239 237 249 258 250 247 269 268 271 269 268 262 251 270 260 260 265 274 279 274 268 260 256 266 265 261
190 190 189 190 190 192 194 195 191 193 194 198 203 209 212 225 231 229 257 251 265 283 300 265 260 268 270 261 249 258 255 250 253 260 270 274 265 266 253 254 261 264 259
185 187 187 185 186 190 193 194 189 190 192 194 196 202 208 224 235 232 237 250 250 262 262 264 264 275 280 276 264 261 267 270 262 256 236 254 274 268 264 254 255 267 274
181 181 183 182 181 183 183 187 188 189 191 191 195 193 200 208 215 224 227 251 260 263 269 275 279 287 289 278 268 262 267 273 278 292 304 283 266 276 263 257 254 259 263
177 174 176 175 178 175 173 179 182 185 188 189 190 193 193 196 200 206 212 219 231 228 225 243 263 278 290 289 281 285 294 278 291 287 265 259 285 283 267 250 251 259 252
172 168 166 164 174 175 173 173 176 180 180 179 182 185 186 190 194 196 201 203 208 220 215 228 248 256 270 289 279 286 292 284 282 277 274 276 275 267 282 283 278 316 247
166 161 155 159 169 171 170 168 173 176 177 175 178 181 184 183 186 187 185 189 196 210 216 218 241 262 265 251 262 282 286 283 280 277 280 285 295 292 328 308 306 238 198
160 158 154 158 162 162 163 164 169 169 172 171 170 173 179 178 174 175 177 180 184 188 198 215 231 242 251 256 257 250 275 281 276 279 301 306 321 334 309 262 229 214 188
163 160 160 158 157 155 158 160 161 163 166 167 170 171 172 169 168 165 167 167 169 170 166 179 193 234 234 323 319 269 242 260 266 260 292 48 50 37 12 360 20 17 299
170 163 161 159 160 159 160 156 158 159 164 170 169 165 165 165 167 165 164 158 153 148 147 147 128 64 31 39 13 327 334 82 150 202 96 116 106 96 82 54 44 29 13
166 163 163 161 162 163 159 159 155 157 161 164 165 164 166 167 169 168 161 156 150 146 141 131 110 89 60 49 30 358 344 51 47 30 45 63 84 99 94 110 132 89 55
164 159 162 156 158 152 152 151 149 155 157 157 159 161 169 168 166 163 159 155 145 140 127 115 110 101 73 53 32 354 61 74 76 68 62 69 66 44 26 48 71 79 71
156 156 162 155 150 148 150 150 153 157 159 161 161 164 165 165 164 160 154 149 140 131 125 113 106 96 78 47 26 340 108 92 79 68 57 52 69 42 6 41 77 84 102
143 146 148 142 140 145 150 155 155 156 160 160 161 157 154 155 153 150 146 139 135 130 125 107 96 93 81 52 20 334 123 100 94 89 85 67 53 37 8 19 61 65 41
135 136 134 131 134 144 151 154 150 151 152 150 149 150 148 147 143 143 141 135 130 124 117 109 98 90 78 76 39 6 16 71 86 84 81 74 62 49 27 17 45 29 349
132 130 123 120 130 141 148 148 147 143 143 143 144 144 141 142 138 141 140 137 136 135 132 125 117 104 91 67 61 44 36 19 75 70 70 79 77 68 51 49 44 5 316
128 125 120 119 125 137 143 141 138 141 144 143 141 137 133 131 138 143 143 145 149 147 143 138 129 116 107 102 93 81 66 46 63 72 72 78 88 104 90 74 41 9 40
130 126 124 123 121 122 123 127 134 141 142 141 137 136 133 131 125 128 135 138 143 143 139 129 125 120 114 106 118 123 118 121 117 109 112 116 93 81 74 90 76 53 42
127 130 126 124 120 118 118 125 133 138 137 134 132 132 130 125 119 105 70 75 65 55 95 118 126 124 117 83 57 73 92 81 83 107 124 110 99 82 70 63 56 50 55
134 129 124 124 121 124 122 121 130 140 142 142 143 143 137 133 134 126 104 60 62 65 59 53 67 84 88 99 89 79 73 65 48 164 103 84 70 64 62 63 64 54 45